Weather in Florence

Italy     43°46′47″N   11°15′56″E
temp.,
°C
wind,
m/s
gust,
m/s
humid.,
%
clouds,
%
prec.,
mm/h
press.,
hPa
HPBL,
m
15 august, mon
mon1523:00+24s23409 0.0 1009121
02:00+22se1145100 0.0 100939
05:00+21ese11490 0.0 100829
08:00+22ese12480 0.0 1009205
11:00+28ssw234227 0.1 10091192
14:00+32wnw4633100 0.1 10062090
17:00+32w7832100 0.0 10062348
20:00+28wsw47470 0.4 10061332
16 august, tue
tue1623:00+23se22820 2.0 100966
02:00+22se118259 2.0 100950
05:00+20ese11895 0.5 100945
08:00+21ene11840 0.8 1010153
11:00+29nnw11500 0.0 1011843
14:00+33wnw23322 0.0 10102250
17:00+31ssw6543100 0.1 10101345
20:00+27s256066 0.4 1010287
17 august, wed
wed1723:00+24sse2367100 0.0 1012145
02:00+23sse11730 0.0 101232
05:00+21e11770 0.0 101238
08:00+23se12740 0.0 1014239
11:00+30sw12487 0.0 10131051
14:00+33wnw36336 0.0 10132278
17:00+31wnw463329 0.0 10131526
20:00+28ese11415 0.0 101217
18 august, thu
thu1823:00+25ese114898 0.0 101220
02:00+24ene1151100 0.0 101231
05:00+22ene116094 0.1 101129
08:00+24ene24575 0.1 1010190
11:00+29ssw2539100 0.1 10111100
14:00+30e3441100 0.2 1009705
17:00+30nnw34537 0.7 1009205
20:00+23e239073 7.2 1008138
19 august, fri
fri1923:00+22e1291100 2.0 101098
02:00+21ese119170 2.2 100931
05:00+19sse12920 2.4 101064
08:00+21ssw128929 2.4 1010227
11:00+26wsw35595 0.0 10111409
14:00+28w5642100 0.0 10101743
17:00+28w563968 0.0 10081319
20:00+21se4668100 0.4 1011399